Regional Weather Roundup
Issued by NWS Newport/Morehead, NC

Current Version | Previous Version | Graphics & Text | Print | Product List | Glossary Off
Versions: 1 2 3 4 5 6 7 8 9 10 11 12 13 14 15 16 17 18 19 20 21 22 23 24 25 26 27 28 29 30 31 32 33 34 35 36 37 38 39 40 41 42 43 44 45 46 47 48 49 50

000
ASUS42 KMHX 251225
RWRMHX
WEATHER ROUNDUP FOR EASTERN NORTH CAROLINA
NATIONAL WEATHER SERVICE NEWPORT/MOREHEAD CITY NC
700 AM EST SAT FEB 25 2017

NOTE: "FAIR" INDICATES FEW OR NO CLOUDS BELOW 12,000 FEET
WITH NO SIGNIFICANT WEATHER AND/OR OBSTRUCTIONS TO VISIBILITY

NCZ015>017-031-032-045>047-102-103-251300-
NORTH COAST

CITY           SKY/WX    TMP DP  RH WIND       PRES   REMARKS
EDENTON        FOG       50  50 100 CALM      29.80R VSB 1/4
ELIZABETH CITY FOG       49  49 100 CALM      29.79S VSB 1/4
KITTY HAWK     NOT AVBL
MANTEO         FOG       51  51 100 CALM      29.79R VSB 3/4

$$

NCZ045>047-081-094-103-104-251300-
CENTRAL COAST

CITY           SKY/WX    TMP DP  RH WIND       PRES   REMARKS
FRISCO         CLEAR     60  57  89 N3        29.78R FOG

$$

NCZ095-097-098-100-101-251300-
SOUTHERN COAST

CITY           SKY/WX    TMP DP  RH WIND       PRES   REMARKS
BEAUFORT       FOG       53  53 100 CALM      29.80R VSB 3/4
CEDAR ISLAND   NOT AVBL
JACKSONVILLE   PTCLDY    50  50 100 CALM      29.79R
PINEY ISLAND   FOG      N/A N/A N/A W3        29.79R VSB 1/4
WILMINGTON     MOCLDY    51  51 100 CALM      29.81R FOG


$$

NCZ011>013-027>030-043-044-078>080-089-090>093-098-251300-
COASTAL PLAIN

CITY           SKY/WX    TMP DP  RH WIND       PRES   REMARKS
AHOSKIE        FOG       47  47  99 CALM      29.79S VSB<1/4
CLINTON        FOG       51  51 100 CALM      29.80S VSB 1/2
ELIZABETHTOWN    N/A     53  53 100 S3        29.80S FOG
GOLDSBORO      FOG       50  50 100 CALM      29.78S VSB 3/4
GREENVILLE     FOG       52  50  93 CALM      29.82S VSB<1/4
HAVELOCK       PTCLDY    52  50  93 VRB1      29.81R FOG
KENANSVILLE    FOG       46  46 100 CALM      29.81R VSB 1/4
KINSTON        CLEAR     48  48 100 CALM      29.81R FOG
NEW BERN       FOG       50  50 100 CALM      29.81R VSB 1/4
RICHLANDS      FOG       46  46 100 CALM      29.81R VSB 1/4
ROCKY MOUNT    FOG       53  53 100 CALM      29.78S VSB 1
WASHINGTON     FOG       48  48  99 CALM      29.80R VSB<1/4
WHITEVILLE     FOG       51  50  97 CALM      29.80R VSB<1/4

$$

AMZ130-135-150-152-154-156-158-170-250-252-270-ANZ085-086-088-633-658-670-251300-
MARINE OBSERVATIONS

STATION/POSITION TIME  TEMP    WIND        PRES    WAVE   SWELL
                       AIR SEA DIR/SP/G            HT/PER HT/PER
                 (UTC) (F)     (DEG/KT/KT) (MB)    (FT/S) (FT/S)
CHESAPEAKE LIGHT NOT AVBL
64 E VA BEACH    1150   56 54   40/  6/  8 1007.9    6/11   7/11
DUCK             1200   55 49  100/  1/  2 1008.0
2 E DUCK         1200      50                N/A     5/11   3/11
OREGON INLET     1200   55 57   40/  3/  3 1008.3
13E OREGON INLT  NOT AVBL
HATTERAS CG      1200   62 63  320/  2/  3 1008.2
DIAMOND BUOY     1150   70 76  310/  4/  6 1008.1    8/11   8/11
CAPE LOOKOUT     1200   62     320/  2/  2 1008.5
BEAUFORT LAB     1200   59 62   10/  3/  3 1008.0
30 SE NEW RVR IN 1208   65     350/  2/  8 1008.9
30 SE NEW RVR IN 1213      69                N/A     7/11   5/11
27 SE WRIGHTSVLE 1208   64 65  310/  4/  8 1007.9
5 SE WRIGHTSVLE  1208   59 58  260/  2/  6 1009.0
225 S CAPE HAT   1150   69 70  310/  4/  6 1007.4   10/10  10/10
41 SE CHARLESTON 1150   69 70  230/  8/ 12 1009.0    7/10   7/10

$$




USA.gov is the U.S. government's official web portal to all federal, state and local government web resources and services.